Orbital Elements at Epoch 2459200.5 (2020-Dec-17.0) TDB
Reference: JPL 22 (heliocentric ecliptic J2000)
Element | Value | Uncertainty (1-sigma) | Units |
e | .02302894751872098 | 4.94e-08 | |
a | 3.063345226222384 | 3.0923e-08 | au |
q | 2.992799609775985 | 1.5065e-07 | au |
i | 9.231140068319771 | 5.5354e-06 | deg |
node | 199.3681977654546 | 2.6848e-05 | deg |
peri | 177.1150402362563 | 0.0001044 | deg |
M | 40.83885749478578 | 9.9364e-05 | deg |
tp | 2458978.341249560569 (2020-May-08.84124956) | 0.00054144 | TDB |
period | 1958.35914774076 5.36 | 2.9653e-05 8.119e-08 | d yr |
n | .1838273640538867 | 2.7834e-09 | deg/d |
Q | 3.133890842668785 | 3.1635e-08 | au |
|
| | Orbit Determination Parameters
Additional Information
|